| time (UTC) | temp F | wind direction | speed knots | gust knots | rain 1hr in | rain 24hr in | rain mn in | humidity % | barometer mb |
| 20260831160337 | 73 | 31 | 1.7 | 6.1 | 0.05 | 0.11 | 0.11 | 92 | 1019.9 |
| 20260831155832 | 73 | 18 | 2.6 | 3.5 | 0.07 | 0.11 | 0.11 | 92 | 1020.0 |
| 20260831155332 | 73 | 23 | 0.9 | 3.5 | 0.09 | 0.10 | 0.10 | 91 | 1020.0 |
| 20260831154828 | 72 | 71 | 2.6 | 6.1 | 0.09 | 0.09 | 0.09 | 91 | 1020.1 |
| 20260831154324 | 73 | 118 | 0.9 | 4.3 | 0.05 | 0.08 | 0.08 | 90 | 1020.1 |
| 20260831153823 | 73 | 79 | 4.3 | 9.6 | 0.05 | 0.07 | 0.07 | 90 | 1019.8 |
| 20260831153319 | 73 | 99 | 2.6 | 7.8 | 0.09 | 0.07 | 0.07 | 89 | 1020.0 |
| 20260831152815 | 74 | 68 | 2.6 | 4.3 | 0.12 | 0.07 | 0.07 | 88 | 1020.0 |
| 20260831152310 | 74 | 96 | 2.6 | 4.3 | 0.12 | 0.06 | 0.06 | 88 | 1020.0 |
| 20260831151805 | 74 | 80 | 1.7 | 4.3 | 0.14 | 0.05 | 0.05 | 86 | 1020.1 |
| 20260831151304 | 75 | 50 | 1.7 | 1.7 | 0.12 | 0.04 | 0.04 | 85 | 1020.3 |
| 20260831150759 | 75 | 201 | 1.7 | 4.3 | 0.09 | 0.02 | 0.02 | 83 | 1020.2 |
| 20260831150255 | 76 | 160 | 2.6 | 6.1 | 0.05 | 0.01 | 0.01 | 82 | 1020.3 |
| 20260831145754 | 76 | 74 | 1.7 | 4.3 | 0.02 | 0.01 | 0.01 | 81 | 1020.1 |
| 20260831145250 | 76 | 70 | 2.6 | 6.1 | 0.00 | 0.00 | 0.00 | 80 | 1019.8 |
| 20260831144746 | 76 | 189 | 0.9 | 7.0 | 0.00 | 0.00 | 0.00 | 80 | 1019.9 |
| 20260831144242 | 77 | 53 | 1.7 | 4.3 | 0.00 | 0.00 | 0.00 | 79 | 1019.8 |
| 20260831143742 | 77 | 149 | 3.5 | 6.1 | 0.00 | 0.00 | 0.00 | 79 | 1019.4 |
| 20260831143237 | 77 | 158 | 3.5 | 4.3 | 0.00 | 0.00 | 0.00 | 79 | 1019.5 |
| 20260831142732 | 77 | 95 | 0.9 | 3.5 | 0.00 | 0.00 | 0.00 | 79 | 1019.5 |
| 20260831142228 | 77 | 149 | 0.9 | 7.0 | 0.00 | 0.00 | 0.00 | 78 | 1019.5 |
| 20260831141727 | 77 | 76 | 1.7 | 4.3 | 0.00 | 0.00 | 0.00 | 78 | 1019.1 |
| 20260831141222 | 77 | 60 | 0.9 | 5.2 | 0.00 | 0.00 | 0.00 | 76 | 1018.9 |
| 20260831140722 | 78 | 168 | 1.7 | 7.8 | 0.02 | 0.00 | 0.00 | 76 | 1019.0 |
| 20260831140216 | 78 | 262 | 1.7 | 8.7 | 0.00 | 0.00 | 0.00 | 75 | 1019.0 |
| 20260831135714 | 79 | 87 | 1.7 | 7.8 | 0.00 | 0.00 | 0.00 | 71 | 1018.6 |
| 20260831135210 | 80 | 131 | 1.7 | 4.3 | 0.00 | 0.00 | 0.00 | 68 | 1018.4 |
| 20260831134706 | 80 | 134 | 0.9 | 2.6 | 0.00 | 0.00 | 0.00 | 68 | 1018.3 |
| 20260831134201 | 80 | 156 | 2.6 | 7.0 | 0.00 | 0.00 | 0.00 | 67 | 1017.9 |
| 20260831133700 | 79 | 169 | 1.7 | 6.1 | 0.00 | 0.00 | 0.00 | 68 | 1017.7 |
| 20260831133155 | 79 | 155 | 3.5 | 5.2 | 0.00 | 0.00 | 0.00 | 71 | 1017.7 |
| 20260831132651 | 79 | 160 | 1.7 | 2.6 | 0.00 | 0.00 | 0.00 | 71 | 1017.7 |
| 20260831132150 | 79 | 142 | 1.7 | 3.5 | 0.00 | 0.00 | 0.00 | 71 | 1017.6 |
| 20260831131645 | 79 | 216 | 0.9 | 3.5 | 0.00 | 0.00 | 0.00 | 71 | 1017.6 |
| 20260831131142 | 79 | 126 | 0.9 | 4.3 | 0.00 | 0.00 | 0.00 | 71 | 1017.2 |
| 20260831130636 | 79 | 162 | 0.0 | 3.5 | 0.00 | 0.00 | 0.00 | 72 | 1017.0 |
| 20260831130132 | 78 | 115 | 1.7 | 2.6 | 0.00 | 0.00 | 0.00 | 74 | 1017.1 |
| 20260831125630 | 78 | 127 | 0.9 | 4.3 | 0.00 | 0.00 | 0.00 | 73 | 1017.0 |
| 20260831125126 | 78 | 150 | 2.6 | 4.3 | 0.00 | 0.00 | 0.00 | 73 | 1017.0 |
| 20260831124622 | 79 | 161 | 2.6 | 4.3 | 0.00 | 0.00 | 0.00 | 72 | 1016.9 |
| 20260831124118 | 79 | 146 | 0.0 | 2.6 | 0.00 | 0.00 | 0.00 | 72 | 1016.8 |
| 20260831123618 | 79 | 208 | 0.0 | 4.3 | 0.00 | 0.00 | 0.00 | 72 | 1016.9 |
| 20260831123117 | 79 | 143 | 3.5 | 6.1 | 0.00 | 0.00 | 0.00 | 71 | 1017.1 |
| 20260831122617 | 79 | 202 | 1.7 | 4.3 | 0.00 | 0.00 | 0.00 | 71 | 1016.7 |
| 20260831122113 | 79 | 183 | 0.9 | 3.5 | 0.00 | 0.00 | 0.00 | 71 | 1016.6 |
| 20260831121612 | 79 | 165 | 0.9 | 2.6 | 0.00 | 0.00 | 0.00 | 71 | 1016.6 |
| 20260831121109 | 79 | 107 | 0.0 | 2.6 | 0.00 | 0.00 | 0.00 | 71 | 1016.7 |
| 20260831120609 | 79 | 160 | 0.9 | 2.6 | 0.00 | 0.00 | 0.00 | 72 | 1016.3 |
| 20260831120104 | 79 | 199 | 0.0 | 1.7 | 0.00 | 0.00 | 0.00 | 72 | 1016.4 |
| 20260831115559 | 79 | 223 | 0.0 | 1.7 | 0.00 | 0.00 | 0.00 | 71 | 1016.2 |
| 20260831115055 | 79 | 141 | 0.0 | 2.6 | 0.00 | 0.00 | 0.00 | 71 | 1016.5 |
| 20260831114553 | 79 | 230 | 0.0 | 0.9 | 0.00 | 0.00 | 0.00 | 71 | 1016.2 |
| 20260831114048 | 79 | 215 | 0.9 | 2.6 | 0.00 | 0.00 | 0.00 | 69 | 1016.1 |
| 20260831113548 | 80 | 290 | 0.0 | 0.9 | 0.00 | 0.00 | 0.00 | 67 | 1016.1 |
| 20260831113044 | 79 | 156 | 0.0 | 0.9 | 0.00 | 0.00 | 0.00 | 66 | 1016.1 |
| 20260831112543 | 79 | 149 | 0.9 | 1.7 | 0.00 | 0.00 | 0.00 | 65 | 1016.2 |
| 20260831112038 | 79 | 230 | 0.0 | 0.9 | 0.00 | 0.00 | 0.00 | 64 | 1015.8 |
| 20260831111534 | 80 | 166 | 0.0 | 0.9 | 0.00 | 0.00 | 0.00 | 63 | 1016.1 |
| 20260831111029 | 80 | 83 | 1.7 | 4.3 | 0.00 | 0.00 | 0.00 | 62 | 1016.0 |
| 20260831110525 | 80 | 104 | 2.6 | 3.5 | 0.00 | 0.00 | 0.00 | 63 | 1015.8 |
| 20260831110020 | 80 | 93 | 1.7 | 9.6 | 0.00 | 0.00 | 0.00 | 63 | 1015.6 |
| 20260831105519 | 80 | 92 | 6.1 | 6.1 | 0.00 | 0.00 | 0.00 | 63 | 1015.4 |
| 20260831105014 | 80 | 72 | 2.6 | 5.2 | 0.00 | 0.00 | 0.00 | 63 | 1015.4 |
| 20260831104510 | 80 | 77 | 1.7 | 4.3 | 0.00 | 0.00 | 0.00 | 62 | 1015.3 |
| 20260831104006 | 80 | 77 | 3.5 | 5.2 | 0.00 | 0.00 | 0.00 | 61 | 1014.8 |
| 20260831103501 | 80 | 88 | 2.6 | 4.3 | 0.00 | 0.00 | 0.00 | 61 | 1014.9 |
| 20260831102956 | 81 | 31 | 1.7 | 3.5 | 0.00 | 0.00 | 0.00 | 60 | 1014.9 |
| 20260831102450 | 80 | 12 | 3.5 | 4.3 | 0.00 | 0.00 | 0.00 | 61 | 1014.7 |
| 20260831101945 | 80 | 86 | 2.6 | 3.5 | 0.00 | 0.00 | 0.00 | 61 | 1014.8 |
| 20260831101440 | 80 | 70 | 1.7 | 3.5 | 0.00 | 0.00 | 0.00 | 61 | 1014.7 |
| 20260831100937 | 80 | 96 | 1.7 | 4.3 | 0.00 | 0.00 | 0.00 | 61 | 1014.8 |
| 20260831100432 | 80 | 55 | 0.0 | 0.0 | 0.00 | 0.00 | 0.00 | 62 | 1014.6 |
| 20260831095927 | 80 | 114 | 0.9 | 1.7 | 0.00 | 0.00 | 0.00 | 61 | 1014.9 |
| 20260831095426 | 80 | 92 | 1.7 | 3.5 | 0.00 | 0.00 | 0.00 | 61 | 1014.7 |
| 20260831094921 | 80 | 111 | 1.7 | 3.5 | 0.00 | 0.00 | 0.00 | 61 | 1014.9 |
| 20260831094418 | 80 | 85 | 6.1 | 7.0 | 0.00 | 0.00 | 0.00 | 62 | 1015.2 |
| 20260831093914 | 80 | 32 | 0.0 | 2.6 | 0.00 | 0.00 | 0.00 | 63 | 1015.3 |
| 20260831093408 | 80 | 65 | 1.7 | 5.2 | 0.00 | 0.00 | 0.00 | 62 | 1015.3 |
| 20260831092905 | 80 | 80 | 2.6 | 5.2 | 0.00 | 0.00 | 0.00 | 63 | 1015.2 |
| 20260831092400 | 80 | 36 | 2.6 | 6.1 | 0.00 | 0.00 | 0.00 | 64 | 1015.2 |
| 20260831091855 | 80 | 81 | 6.1 | 10.4 | 0.00 | 0.00 | 0.00 | 65 | 1015.3 |
| 20260831091350 | 80 | 84 | 2.6 | 6.1 | 0.00 | 0.00 | 0.00 | 64 | 1015.4 |
| 20260831090846 | 80 | 33 | 3.5 | 13.9 | 0.00 | 0.00 | 0.00 | 65 | 1015.7 |
| 20260831090336 | 80 | 80 | 4.3 | 11.3 | 0.00 | 0.00 | 0.00 | 67 | 1015.4 |
| 20260831085832 | 80 | 102 | 4.3 | 11.3 | 0.00 | 0.00 | 0.00 | 68 | 1015.4 |
| 20260831085327 | 80 | 91 | 4.3 | 11.3 | 0.00 | 0.00 | 0.00 | 67 | 1015.4 |
| 20260831084827 | 80 | 70 | 5.2 | 7.0 | 0.00 | 0.00 | 0.00 | 67 | 1015.3 |
| 20260831084323 | 80 | 61 | 3.5 | 7.0 | 0.00 | 0.00 | 0.00 | 67 | 1015.4 |
| 20260831083819 | 80 | 75 | 7.8 | 10.4 | 0.00 | 0.00 | 0.00 | 67 | 1015.5 |
| 20260831083314 | 80 | 109 | 0.0 | 4.3 | 0.00 | 0.00 | 0.00 | 69 | 1015.6 |
| 20260831082813 | 80 | 102 | 1.7 | 4.3 | 0.00 | 0.00 | 0.00 | 68 | 1015.6 |
| 20260831082308 | 80 | 79 | 4.3 | 6.1 | 0.00 | 0.00 | 0.00 | 68 | 1015.4 |
| 20260831081803 | 80 | 33 | 2.6 | 3.5 | 0.00 | 0.00 | 0.00 | 67 | 1015.7 |
| 20260831081259 | 81 | 10 | 1.7 | 5.2 | 0.00 | 0.00 | 0.00 | 67 | 1015.8 |
| 20260831080754 | 81 | 66 | 3.5 | 6.1 | 0.00 | 0.00 | 0.00 | 66 | 1016.1 |
| 20260831080249 | 81 | 29 | 3.5 | 7.0 | 0.00 | 0.00 | 0.00 | 66 | 1016.0 |
| 20260831075745 | 81 | 27 | 4.3 | 12.2 | 0.00 | 0.00 | 0.00 | 65 | 1015.7 |
| 20260831075235 | 81 | 50 | 3.5 | 7.8 | 0.00 | 0.00 | 0.00 | 66 | 1015.8 |
| 20260831074734 | 81 | 16 | 3.5 | 6.1 | 0.00 | 0.00 | 0.00 | 68 | 1015.5 |
| 20260831074228 | 81 | 28 | 3.5 | 5.2 | 0.00 | 0.00 | 0.00 | 68 | 1015.5 |
| 20260831073724 | 81 | 8 | 2.6 | 6.1 | 0.00 | 0.00 | 0.00 | 68 | 1015.4 |
| 20260831073223 | 81 | 0 | 1.7 | 5.2 | 0.00 | 0.00 | 0.00 | 68 | 1015.4 |
| 20260831072718 | 81 | 349 | 4.3 | 8.7 | 0.00 | 0.00 | 0.00 | 67 | 1015.6 |
| 20260831072215 | 81 | 326 | 6.1 | 7.8 | 0.00 | 0.00 | 0.00 | 66 | 1015.6 |
| 20260831071715 | 81 | 313 | 2.6 | 9.6 | 0.00 | 0.00 | 0.00 | 66 | 1015.6 |
| 20260831071209 | 81 | 333 | 3.5 | 11.3 | 0.00 | 0.00 | 0.00 | 66 | 1015.7 |
| 20260831070708 | 82 | 313 | 3.5 | 7.8 | 0.00 | 0.00 | 0.00 | 66 | 1015.5 |
| 20260831070202 | 82 | 329 | 7.0 | 9.6 | 0.00 | 0.00 | 0.00 | 66 | 1015.0 |
| 20260831065702 | 82 | 6 | 2.6 | 9.6 | 0.00 | 0.09 | 0.09 | 65 | 1014.8 |
| 20260831065200 | 83 | 308 | 6.1 | 9.6 | 0.00 | 0.09 | 0.09 | 63 | 1014.8 |
| 20260831064655 | 84 | 19 | 3.5 | 8.7 | 0.00 | 0.09 | 0.09 | 60 | 1015.1 |
| 20260831064151 | 84 | 353 | 6.1 | 9.6 | 0.00 | 0.09 | 0.09 | 59 | 1014.8 |
| 20260831063647 | 84 | 4 | 5.2 | 10.4 | 0.00 | 0.09 | 0.09 | 59 | 1014.5 |
| 20260831063142 | 85 | 23 | 4.3 | 7.0 | 0.00 | 0.09 | 0.09 | 56 | 1014.8 |
| 20260831062643 | 85 | 343 | 3.5 | 7.8 | 0.00 | 0.09 | 0.09 | 56 | 1014.6 |
| 20260831062142 | 85 | 356 | 2.6 | 6.1 | 0.00 | 0.09 | 0.09 | 56 | 1014.3 |
| 20260831061640 | 85 | 16 | 3.5 | 11.3 | 0.00 | 0.09 | 0.09 | 56 | 1014.4 |
| 20260831061136 | 85 | 16 | 2.6 | 4.3 | 0.00 | 0.09 | 0.09 | 54 | 1014.0 |
| 20260831060633 | 84 | 97 | 2.6 | 2.6 | 0.00 | 0.09 | 0.09 | 56 | 1013.9 |
| 20260831060132 | 86 | 79 | 2.6 | 3.5 | 0.00 | 0.09 | 0.09 | 54 | 1013.9 |
| 20260831055631 | 86 | 78 | 0.0 | 1.7 | 0.00 | 0.09 | 0.09 | 47 | 1013.6 |
| 20260831055127 | 86 | 234 | 0.9 | 4.3 | 0.00 | 0.09 | 0.09 | 47 | 1013.5 |
| 20260831054626 | 86 | 269 | 4.3 | 6.1 | 0.00 | 0.09 | 0.09 | 48 | 1013.5 |
| 20260831054126 | 85 | 233 | 2.6 | 11.3 | 0.00 | 0.09 | 0.09 | 51 | 1013.7 |
| 20260831053621 | 83 | 248 | 4.3 | 7.0 | 0.00 | 0.09 | 0.09 | 55 | 1013.8 |
| 20260831053120 | 82 | 234 | 7.8 | 9.6 | 0.00 | 0.09 | 0.09 | 60 | 1014.1 |
| 20260831052618 | 82 | 242 | 3.5 | 8.7 | 0.00 | 0.09 | 0.09 | 60 | 1014.3 |
| 20260831052118 | 80 | 259 | 6.1 | 10.4 | 0.05 | 0.09 | 0.09 | 67 | 1014.1 |
| 20260831051616 | 77 | 250 | 3.5 | 7.0 | 0.17 | 0.09 | 0.09 | 79 | 1014.3 |
| 20260831051115 | 76 | 233 | 2.6 | 5.2 | 0.38 | 0.08 | 0.08 | 82 | 1015.0 |
| 20260831050610 | 77 | 258 | 4.3 | 7.8 | 0.24 | 0.05 | 0.05 | 80 | 1015.0 |
| 20260831050109 | 78 | 229 | 2.6 | 11.3 | 0.05 | 0.02 | 0.02 | 76 | 1015.0 |
| 20260831045608 | 78 | 221 | 6.1 | 9.6 | 0.07 | 0.01 | 0.01 | 78 | 1015.1 |
| 20260831045103 | 78 | 205 | 3.5 | 10.4 | 0.05 | 0.01 | 0.01 | 77 | 1015.5 |
| 20260831044558 | 79 | 221 | 7.8 | 14.8 | 0.00 | 0.00 | 0.00 | 73 | 1015.4 |
| 20260831044053 | 80 | 212 | 4.3 | 13.9 | 0.00 | 0.00 | 0.00 | 70 | 1014.9 |
| 20260831043549 | 82 | 195 | 7.0 | 14.8 | 0.00 | 0.00 | 0.00 | 63 | 1014.7 |
| 20260831043044 | 81 | 208 | 7.8 | 18.2 | 0.00 | 0.00 | 0.00 | 67 | 1014.7 |
| 20260831042543 | 83 | 232 | 6.1 | 16.5 | 0.00 | 0.00 | 0.00 | 64 | 1014.9 |
| 20260831042039 | 86 | 215 | 2.6 | 17.4 | 0.00 | 0.00 | 0.00 | 55 | 1015.0 |
| 20260831041534 | 87 | 237 | 4.3 | 12.2 | 0.00 | 0.00 | 0.00 | 47 | 1014.4 |
| 20260831041033 | 87 | 189 | 2.6 | 9.6 | 0.00 | 0.00 | 0.00 | 48 | 1014.0 |
| 20260831040528 | 87 | 175 | 2.6 | 12.2 | 0.00 | 0.00 | 0.00 | 50 | 1014.0 |
| 20260831040027 | 87 | 238 | 12.2 | 19.1 | 0.00 | 0.00 | 0.00 | 50 | 1014.0 |
| 20260831035525 | 88 | 241 | 6.1 | 9.6 | 0.00 | 0.00 | 0.00 | 52 | 1013.7 |
| 20260831035021 | 89 | 213 | 7.0 | 18.2 | 0.00 | 0.00 | 0.00 | 50 | 1013.7 |
| 20260831034521 | 89 | 229 | 7.8 | 11.3 | 0.00 | 0.00 | 0.00 | 51 | 1013.5 |
| 20260831034016 | 90 | 222 | 7.0 | 13.0 | 0.00 | 0.00 | 0.00 | 49 | 1013.5 |
| 20260831033512 | 92 | 211 | 11.3 | 17.4 | 0.00 | 0.00 | 0.00 | 45 | 1013.4 |
| 20260831033007 | 92 | 161 | 2.6 | 8.7 | 0.00 | 0.00 | 0.00 | 45 | 1013.5 |
| 20260831032506 | 95 | 225 | 12.2 | 14.8 | 0.00 | 0.00 | 0.00 | 41 | 1013.1 |
| 20260831032002 | 100 | 219 | 2.6 | 4.3 | 0.00 | 0.00 | 0.00 | 34 | 1012.3 |
| 20260831031501 | 99 | 271 | 2.6 | 5.2 | 0.00 | 0.00 | 0.00 | 34 | 1012.3 |
| 20260831031001 | 99 | 297 | 0.9 | 2.6 | 0.00 | 0.00 | 0.00 | 35 | 1012.2 |
| 20260831030500 | 99 | 308 | 0.9 | 2.6 | 0.00 | 0.00 | 0.00 | 35 | 1012.2 |
| 20260831025958 | 99 | 327 | 1.7 | 1.7 | 0.00 | 0.00 | 0.00 | 35 | 1012.2 |
| 20260831025457 | 99 | 313 | 0.9 | 2.6 | 0.00 | 0.00 | 0.00 | 35 | 1011.9 |
| 20260831024953 | 99 | 336 | 1.7 | 1.7 | 0.00 | 0.00 | 0.00 | 34 | 1011.8 |
| 20260831024448 | 100 | 336 | 1.7 | 3.5 | 0.00 | 0.00 | 0.00 | 34 | 1012.0 |
| 20260831023942 | 99 | 318 | 1.7 | 2.6 | 0.00 | 0.00 | 0.00 | 34 | 1011.8 |
| 20260831023440 | 99 | 332 | 1.7 | 1.7 | 0.00 | 0.00 | 0.00 | 34 | 1011.8 |
| 20260831022936 | 100 | 333 | 0.9 | 4.3 | 0.00 | 0.00 | 0.00 | 34 | 1011.6 |
| 20260831022434 | 100 | 336 | 1.7 | 3.5 | 0.00 | 0.00 | 0.00 | 34 | 1011.7 |
| 20260831021929 | 100 | 321 | 1.7 | 3.5 | 0.00 | 0.00 | 0.00 | 33 | 1011.4 |
| 20260831021423 | 100 | 321 | 0.9 | 4.3 | 0.00 | 0.00 | 0.00 | 34 | 1011.2 |
| 20260831020920 | 100 | 320 | 1.7 | 2.6 | 0.00 | 0.00 | 0.00 | 34 | 1011.3 |
| 20260831020419 | 100 | 340 | 0.9 | 3.5 | 0.00 | 0.00 | 0.00 | 34 | 1011.2 |
| 20260831015914 | 100 | 0 | 0.9 | 3.5 | 0.00 | 0.00 | 0.00 | 33 | 1011.2 |
| 20260831015410 | 100 | 322 | 1.7 | 4.3 | 0.00 | 0.00 | 0.00 | 33 | 1011.1 |
| 20260831014905 | 100 | 340 | 0.9 | 2.6 | 0.00 | 0.00 | 0.00 | 33 | 1010.9 |
| 20260831014404 | 101 | 296 | 2.6 | 4.3 | 0.00 | 0.00 | 0.00 | 33 | 1010.9 |
| 20260831013900 | 101 | 308 | 1.7 | 2.6 | 0.00 | 0.00 | 0.00 | 33 | 1010.8 |
| 20260831013355 | 102 | 323 | 2.6 | 5.2 | 0.00 | 0.00 | 0.00 | 32 | 1010.9 |
| 20260831012849 | 102 | 281 | 2.6 | 5.2 | 0.00 | 0.00 | 0.00 | 32 | 1010.6 |
| 20260831012345 | 102 | 298 | 1.7 | 4.3 | 0.00 | 0.00 | 0.00 | 32 | 1011.0 |
| 20260831011845 | 102 | 312 | 1.7 | 5.2 | 0.00 | 0.00 | 0.00 | 32 | 1010.9 |
| 20260831011340 | 103 | 306 | 0.0 | 2.6 | 0.00 | 0.00 | 0.00 | 32 | 1010.6 |
| 20260831010836 | 103 | 319 | 0.9 | 3.5 | 0.00 | 0.00 | 0.00 | 32 | 1010.6 |
| 20260831010335 | 103 | 338 | 2.6 | 6.1 | 0.00 | 0.00 | 0.00 | 31 | 1011.0 |
| 20260831005831 | 103 | 343 | 0.9 | 3.5 | 0.00 | 0.00 | 0.00 | 31 | 1011.0 |
| 20260831005327 | 104 | 294 | 2.6 | 3.5 | 0.00 | 0.00 | 0.00 | 31 | 1011.1 |
| 20260831004821 | 105 | 343 | 0.0 | 1.7 | 0.00 | 0.00 | 0.00 | 31 | 1011.3 |
| 20260831004318 | 103 | 52 | 0.0 | 2.6 | 0.00 | 0.00 | 0.00 | 31 | 1011.1 |
| 20260831003813 | 104 | 129 | 0.0 | 1.7 | 0.00 | 0.00 | 0.00 | 33 | 1010.9 |
| 20260831003309 | 105 | 357 | 0.9 | 3.5 | 0.00 | 0.00 | 0.00 | 31 | 1011.1 |
| 20260831002808 | 105 | 260 | 2.6 | 3.5 | 0.00 | 0.00 | 0.00 | 29 | 1011.1 |
| 20260831002306 | 105 | 301 | 1.7 | 3.5 | 0.00 | 0.00 | 0.00 | 30 | 1011.0 |
| 20260831001759 | 103 | 338 | 2.6 | 5.2 | 0.00 | 0.00 | 0.00 | 31 | 1011.1 |
| 20260831001253 | 104 | 314 | 2.6 | 7.0 | 0.00 | 0.00 | 0.00 | 30 | 1011.0 |
| 20260831000750 | 105 | 262 | 1.7 | 4.3 | 0.00 | 0.00 | 0.00 | 31 | 1011.1 |
| 20260831000245 | 105 | 274 | 2.6 | 3.5 | 0.00 | 0.00 | 0.00 | 30 | 1011.2 |
| 20260830235744 | 104 | 269 | 0.0 | 6.1 | 0.00 | 0.00 | 0.00 | 30 | 1011.0 |
| 20260830235238 | 105 | 280 | 2.6 | 5.2 | 0.00 | 0.00 | 0.00 | 30 | 1011.2 |
| 20260830234733 | 104 | 312 | 2.6 | 6.1 | 0.00 | 0.00 | 0.00 | 30 | 1011.1 |
| 20260830234230 | 104 | 310 | 0.0 | 5.2 | 0.00 | 0.00 | 0.00 | 30 | 1011.2 |
| 20260830233725 | 105 | 318 | 2.6 | 7.0 | 0.00 | 0.00 | 0.00 | 30 | 1011.3 |
| 20260830233221 | 105 | 346 | 1.7 | 9.6 | 0.00 | 0.00 | 0.00 | 30 | 1011.4 |
| 20260830232716 | 105 | 7 | 2.6 | 4.3 | 0.00 | 0.00 | 0.00 | 30 | 1011.4 |
| 20260830232211 | 105 | 316 | 0.9 | 2.6 | 0.00 | 0.00 | 0.00 | 29 | 1011.3 |
| 20260830231708 | 104 | 176 | 0.9 | 5.2 | 0.00 | 0.00 | 0.00 | 30 | 1011.6 |
| 20260830231207 | 104 | 86 | 2.6 | 2.6 | 0.00 | 0.00 | 0.00 | 31 | 1011.7 |
| 20260830230702 | 103 | 307 | 0.9 | 7.0 | 0.00 | 0.00 | 0.00 | 30 | 1012.0 |
| 20260830230157 | 105 | 236 | 0.0 | 1.7 | 0.00 | 0.00 | 0.00 | 29 | 1011.7 |
| 20260830225651 | 105 | 282 | 1.7 | 6.1 | 0.00 | 0.00 | 0.00 | 31 | 1011.8 |
| 20260830225146 | 105 | 306 | 2.6 | 5.2 | 0.00 | 0.00 | 0.00 | 30 | 1011.9 |
| 20260830224645 | 105 | 356 | 1.7 | 4.3 | 0.00 | 0.00 | 0.00 | 30 | 1012.0 |
| 20260830224141 | 105 | 336 | 1.7 | 3.5 | 0.00 | 0.00 | 0.00 | 30 | 1012.2 |
| 20260830223638 | 104 | 246 | 3.5 | 5.2 | 0.00 | 0.00 | 0.00 | 32 | 1012.4 |
| 20260830223137 | 105 | 230 | 2.6 | 3.5 | 0.00 | 0.00 | 0.00 | 33 | 1012.0 |
| 20260830222632 | 104 | 116 | 1.7 | 1.7 | 0.00 | 0.00 | 0.00 | 31 | 1012.5 |
| 20260830222128 | 104 | 295 | 1.7 | 7.0 | 0.00 | 0.00 | 0.00 | 31 | 1012.5 |
| 20260830221623 | 104 | 206 | 1.7 | 2.6 | 0.00 | 0.00 | 0.00 | 31 | 1012.6 |
| 20260830221119 | 104 | 261 | 0.9 | 3.5 | 0.00 | 0.00 | 0.00 | 29 | 1012.6 |
| 20260830220615 | 104 | 61 | 1.7 | 4.3 | 0.00 | 0.00 | 0.00 | 31 | 1012.6 |
| 20260830220113 | 103 | 71 | 1.7 | 3.5 | 0.00 | 0.00 | 0.00 | 32 | 1012.7 |
| 20260830215612 | 105 | 84 | 1.7 | 2.6 | 0.00 | 0.00 | 0.00 | 33 | 1013.0 |
| 20260830215107 | 103 | 67 | 2.6 | 3.5 | 0.00 | 0.00 | 0.00 | 31 | 1013.1 |
| 20260830214602 | 104 | 89 | 1.7 | 4.3 | 0.00 | 0.00 | 0.00 | 32 | 1013.2 |
| 20260830214057 | 104 | 288 | 2.6 | 3.5 | 0.00 | 0.00 | 0.00 | 31 | 1013.4 |
| 20260830213551 | 104 | 331 | 2.6 | 3.5 | 0.00 | 0.00 | 0.00 | 30 | 1013.5 |
| 20260830213047 | 103 | 50 | 2.6 | 6.1 | 0.00 | 0.00 | 0.00 | 31 | 1013.5 |
| 20260830212543 | 103 | 95 | 3.5 | 7.0 | 0.00 | 0.00 | 0.00 | 31 | 1013.9 |
| 20260830212037 | 103 | 73 | 1.7 | 2.6 | 0.00 | 0.00 | 0.00 | 31 | 1014.0 |
| 20260830211532 | 102 | 199 | 2.6 | 6.1 | 0.00 | 0.00 | 0.00 | 34 | 1014.0 |
| 20260830211031 | 102 | 185 | 3.5 | 6.1 | 0.00 | 0.00 | 0.00 | 32 | 1014.2 |
| 20260830210527 | 103 | 12 | 3.5 | 5.2 | 0.00 | 0.00 | 0.00 | 31 | 1014.2 |
| 20260830210026 | 102 | 309 | 1.7 | 2.6 | 0.00 | 0.00 | 0.00 | 32 | 1014.0 |
| 20260830205524 | 102 | 75 | 1.7 | 5.2 | 0.00 | 0.00 | 0.00 | 34 | 1014.3 |
| 20260830205020 | 102 | 153 | 2.6 | 4.3 | 0.00 | 0.00 | 0.00 | 32 | 1014.2 |
| 20260830204518 | 101 | 176 | 1.7 | 5.2 | 0.00 | 0.00 | 0.00 | 33 | 1014.6 |
| 20260830204018 | 101 | 135 | 7.8 | 9.6 | 0.00 | 0.00 | 0.00 | 33 | 1014.5 |
| 20260830203514 | 102 | 276 | 2.6 | 2.6 | 0.00 | 0.00 | 0.00 | 32 | 1014.9 |
| 20260830203009 | 102 | 293 | 0.9 | 5.2 | 0.00 | 0.00 | 0.00 | 32 | 1014.7 |
| 20260830202503 | 102 | 114 | 1.7 | 2.6 | 0.00 | 0.00 | 0.00 | 35 | 1014.8 |
| 20260830202000 | 101 | 24 | 0.9 | 4.3 | 0.00 | 0.00 | 0.00 | 34 | 1015.0 |
| 20260830201458 | 101 | 48 | 2.6 | 7.0 | 0.00 | 0.00 | 0.00 | 33 | 1015.1 |
| 20260830200954 | 101 | 228 | 0.0 | 3.5 | 0.00 | 0.00 | 0.00 | 33 | 1014.9 |
| 20260830200448 | 101 | 19 | 3.5 | 9.6 | 0.00 | 0.00 | 0.00 | 34 | 1015.2 |
| 20260830195943 | 101 | 4 | 2.6 | 6.1 | 0.00 | 0.00 | 0.00 | 34 | 1015.2 |
| 20260830195438 | 100 | 302 | 2.6 | 4.3 | 0.00 | 0.00 | 0.00 | 35 | 1015.1 |
| 20260830194936 | 100 | 301 | 4.3 | 7.8 | 0.00 | 0.00 | 0.00 | 34 | 1015.3 |
| 20260830194436 | 101 | 332 | 0.0 | 1.7 | 0.00 | 0.00 | 0.00 | 34 | 1015.3 |
| 20260830193935 | 100 | 286 | 1.7 | 6.1 | 0.00 | 0.00 | 0.00 | 35 | 1015.6 |
| 20260830193434 | 100 | 350 | 1.7 | 3.5 | 0.00 | 0.00 | 0.00 | 34 | 1015.7 |
| 20260830192930 | 100 | 245 | 1.7 | 2.6 | 0.00 | 0.00 | 0.00 | 35 | 1015.6 |
| 20260830192425 | 100 | 203 | 0.9 | 6.1 | 0.00 | 0.00 | 0.00 | 34 | 1015.8 |
| 20260830191920 | 100 | 323 | 0.9 | 3.5 | 0.00 | 0.00 | 0.00 | 37 | 1015.8 |
| 20260830191420 | 100 | 201 | 0.9 | 4.3 | 0.00 | 0.00 | 0.00 | 36 | 1016.0 |
| 20260830190916 | 100 | 255 | 0.9 | 2.6 | 0.00 | 0.00 | 0.00 | 36 | 1016.0 |
| 20260830190411 | 99 | 227 | 2.6 | 7.8 | 0.00 | 0.00 | 0.00 | 38 | 1016.3 |
| 20260830185910 | 100 | 155 | 4.3 | 7.8 | 0.00 | 0.00 | 0.00 | 35 | 1016.3 |
| 20260830185405 | 100 | 202 | 2.6 | 4.3 | 0.00 | 0.00 | 0.00 | 35 | 1016.3 |
| 20260830184900 | 100 | 59 | 2.6 | 4.3 | 0.00 | 0.00 | 0.00 | 35 | 1016.5 |
| 20260830184359 | 100 | 224 | 0.0 | 4.3 | 0.00 | 0.00 | 0.00 | 36 | 1016.3 |
| 20260830183854 | 100 | 177 | 1.7 | 4.3 | 0.00 | 0.00 | 0.00 | 39 | 1016.4 |
| 20260830183349 | 99 | 218 | 1.7 | 4.3 | 0.00 | 0.00 | 0.00 | 36 | 1016.5 |
| 20260830182844 | 98 | 261 | 2.6 | 7.8 | 0.00 | 0.00 | 0.00 | 37 | 1016.8 |
| 20260830182340 | 98 | 249 | 2.6 | 8.7 | 0.00 | 0.00 | 0.00 | 37 | 1016.9 |
| 20260830181836 | 98 | 219 | 2.6 | 4.3 | 0.00 | 0.00 | 0.00 | 38 | 1016.8 |
| 20260830181331 | 99 | 179 | 1.7 | 6.1 | 0.00 | 0.00 | 0.00 | 38 | 1017.1 |
| 20260830180830 | 99 | 129 | 0.9 | 4.3 | 0.00 | 0.00 | 0.00 | 37 | 1016.9 |
| 20260830180325 | 98 | 106 | 0.9 | 1.7 | 0.00 | 0.00 | 0.00 | 38 | 1017.1 |
| 20260830175824 | 98 | 165 | 3.5 | 8.7 | 0.00 | 0.00 | 0.00 | 37 | 1017.1 |
| 20260830175319 | 97 | 168 | 3.5 | 7.0 | 0.00 | 0.00 | 0.00 | 39 | 1017.1 |
| 20260830174814 | 97 | 166 | 4.3 | 8.7 | 0.00 | 0.00 | 0.00 | 37 | 1017.5 |
| 20260830174310 | 97 | 212 | 2.6 | 6.1 | 0.00 | 0.00 | 0.00 | 39 | 1017.2 |
| 20260830173809 | 96 | 154 | 3.5 | 7.0 | 0.00 | 0.00 | 0.00 | 39 | 1017.3 |
| 20260830173305 | 96 | 172 | 1.7 | 9.6 | 0.00 | 0.00 | 0.00 | 39 | 1017.3 |
| 20260830172801 | 96 | 204 | 2.6 | 4.3 | 0.00 | 0.00 | 0.00 | 40 | 1017.3 |
| 20260830172257 | 95 | 210 | 2.6 | 7.0 | 0.00 | 0.00 | 0.00 | 41 | 1017.3 |
| 20260830171753 | 96 | 196 | 2.6 | 7.0 | 0.00 | 0.00 | 0.00 | 39 | 1017.4 |
| 20260830171248 | 95 | 161 | 0.9 | 5.2 | 0.00 | 0.00 | 0.00 | 40 | 1017.3 |
| 20260830170742 | 95 | 191 | 4.3 | 7.8 | 0.00 | 0.00 | 0.00 | 40 | 1017.4 |
| 20260830170242 | 95 | 189 | 6.1 | 8.7 | 0.00 | 0.00 | 0.00 | 40 | 1017.4 |
| 20260830165740 | 95 | 201 | 1.7 | 6.1 | 0.00 | 0.00 | 0.00 | 42 | 1017.4 |
| 20260830165236 | 95 | 225 | 2.6 | 8.7 | 0.00 | 0.00 | 0.00 | 40 | 1017.5 |
| 20260830164733 | 95 | 202 | 2.6 | 8.7 | 0.00 | 0.00 | 0.00 | 40 | 1017.5 |
| 20260830164228 | 95 | 222 | 5.2 | 13.0 | 0.00 | 0.00 | 0.00 | 41 | 1017.2 |
| 20260830163725 | 95 | 172 | 1.7 | 7.0 | 0.00 | 0.00 | 0.00 | 40 | 1017.3 |
| 20260830163220 | 94 | 147 | 0.0 | 6.1 | 0.00 | 0.00 | 0.00 | 42 | 1017.3 |
| 20260830162715 | 95 | 212 | 2.6 | 6.1 | 0.00 | 0.00 | 0.00 | 41 | 1017.4 |
| 20260830162212 | 95 | 94 | 1.7 | 3.5 | 0.00 | 0.00 | 0.00 | 42 | 1017.4 |
| 20260830161707 | 93 | 84 | 1.7 | 6.1 | 0.00 | 0.00 | 0.00 | 42 | 1017.5 |
| 20260830161201 | 93 | 225 | 2.6 | 5.2 | 0.00 | 0.00 | 0.00 | 43 | 1017.3 |